Trail Quillan 2017 - 26/03/2017

11km (300mD+)

225 participants classés


Retour au Sommaire - Signaler une erreur - Faire défiler





1 2 3 4 5 /fin /tout

page suivante ->

Pl Do. Nom - Surname Prénom - Name S-Cat /cat Club - Team TEMPS - Time Km/h /sx
1 1178 TORRE JULIEN MSE 1 GINESTAS X-TRAIL 00:47:13 14,0 1
2 1211 GARCIA NICOLAS MV1 1 UNION PERPIGNAN ATHLE 66 00:47:33 13,9 2
3 1206 BONNIN AUREL MSE 2 RACING CLUB NANTAIS 00:49:27 13,3 3
4 1072 DEVRIESE JOCELYN MSE 3 FOULEE DU SOU 00:49:30 13,3 4
5 1120 CENDREZ BRUNO MV1 2   00:50:50 13,0 5
6 1111 BERTRAND THOMAS MSE 4 TRIATHLON TOULOUSE METROPOLE 00:53:42 12,3 6
7 1227 LOUBIERE JULIEN MSE 5 SOREZE VELO CLUB 00:54:58 12,0 7
8 1216 SAURAT YVES MV3 1 JS LEZIGNAN CORBIERES 00:55:00 12,0 8
9 1234 BLANDINIERES JEAN PHILIPPE MCA 1 lauragais athle castelnaudary/trail saute collines 00:55:11 12,0 9
10 1067 COMBES MATHIEU MSE 6   00:55:15 11,9 10
11 1130 BENET GILBERT MV2 1   00:55:26 11,9 11
12 1218 DA-RÉ SÉBASTIEN MES 1 ACNM - NARBONNE 00:55:37 11,9 12
13 1107 ALBERT NICOLAS MSE 7   00:55:38 11,9 13
14 1201 ROUFFET QUENTIN MCA 2 MAZERES COURSE PEDESTRE 09 00:57:06 11,6 14
15 1060 RENVOISÉ ÉRIC MV2 2 GXT / RAS 11590 00:57:28 11,5 15
16 1172 TRIBILLAC NICOLAS MSE 8 Les Angles Triathlon 00:57:55 11,4 16
17 1197 REY AUDRIC MCA 3 LAURAGAIS ATHLETISME CASTELNAUDARY 00:58:16 11,3 17
18 1207 RATIA SYLVAIN MV1 3 GINESTAS X TRAIL 00:58:26 11,3 18
19 1165 ROUZAUD BÉRANGER MV1 4 ACP11 00:58:28 11,3 19
20 1114 FIOL ARNAUD MSE 9 Culture vélo montélimar 01:00:22 10,9 20
21 1208 CARAYOL MARC MV1 5 TRAPEL FC 01:01:24 10,7 21
22 1198 TEIVA ANDRE MSE 10   01:01:35 10,7 22
23 1121 BEAUREGARD JENIFER FSE 1 GOLDEN STAR 01:01:43 10,7 1
24 1081 DEWAVRIN GUILLAUME MES 2   01:01:44 10,7 23
25 1108 LABESSOUILLE RENAUD MSE 11   01:02:01 10,6 24
26 1219 GUILHEM FABIEN MJU 1 Run'In Caux 01:02:27 10,6 25
27 1244 LEGER ROMAIN MSE 12 CÉVENNES TRAIL CLUB 01:03:04 10,5 26
28 1061 BOYE BRICE MSE 13   01:03:26 10,4 27
29 1085 PARMAIN PIERRIC MSE 14   01:03:28 10,4 28
30 1113 MARCEROU DAVID MSE 15   01:03:39 10,4 29
31 1224 BONNEL HENRI-PIERRE MV2 3 GINESTAS X TRAIL/team R-A-S 01:03:52 10,3 30
32 1237 ROUZOUL OLIVIER MV1 6   01:04:14 10,3 31
33 1127 LUCAS THIERRY MV1 7   01:04:17 10,3 32
34 1170 BIENAIME CYRIL MV1 8   01:04:49 10,2 33
35 1217 GARCES MICHAEL MSE 16   01:05:21 10,1 34
36 1241 FIOL LUCAS MSE 17   01:05:21 10,1 35
37 1230 JANY PATRICK MV2 4 ACP 11 - Poumpils 01:05:25 10,1 36
38 1084 PARMAIN GUILHEM MSE 18   01:06:04 10,0 37
39 1158 CANAVY GUILLAUME MSE 19 CANAVY 01:06:35 9,9 38
40 1220 GUILHEM VINCENT MCA 4 Run'In Caux 01:06:48 9,9 39
41 1041 MARQUEZ SÉBASTIEN MES 3 Quillan city 01:07:02 9,8 40
42 1062 DAST YANIS MCA 5 FOULEE DES 3 QUILLES 01:07:03 9,8 41
43 1142 ROSICH ANTHONY MSE 20   01:07:06 9,8 42
44 1029 CHAMPAGNE ULRICK MSE 21 MAZERES COURSE PEDESTRE 09 01:07:35 9,8 43
45 1095 BABY CHRISTOPHE MSE 22   01:07:35 9,8 44
46 1074 SAVARIT AXEL MES 4 GXT 01:07:36 9,8 45
47 1018 RENART STÉPHANE MSE 23 LES COUZINOUS 01:07:49 9,7 46
48 1027 MARIN BRUNO MV3 2   01:07:53 9,7 47
49 1078 ESCALIER LIONEL MV1 9 Amicale du Département 01:08:17 9,7 48
50 1049 MODAT ANNE FSE 2 Running66 01:08:17 9,7 2

Aucun commentaires pour le moment, donnez votre avis, vos impressions avant, pendant! et après la course

Déjà membre? Identifiez-vous pour commenter l'épreuve ou créer un compte